Home   Weather   Port Sudan   Past weeks

Flag for Sudan Past Weather in Port Sudan, Sudan — Yesterday and Last 2 Weeks

Now
75 °F

Clear.


Feels Like: 77 °F
Forecast: 75 / 81 °F
Wind: 9 mph from Northeast

Location: Jeddah King Abdul Aziz International Airport

Current Time: Jan 22, 2017 at 9:41:30 pm

Latest Report: Jan 22, 2017 at 9:00 pm


Visibility: 10 mi

Pressure: 29.98 "Hg

Humidity: 61%

Dew Point: 61 °F

Location of Port SudanLocation

Past Weather in Port Sudan — Graph

°F

Port Sudan Temperature Yesterday

Maximum temperature yesterday: 81 °F (at 11:00 am)
Minimum temperature yesterday: 72 °F (at 5:00 am)
Average temperature yesterday: 77 °F

High & Low Weather Summary for the Past Weeks

 TemperatureHumidityPressure
High88 °F (Jan 15, 12:00 pm)94% (Jan 17, 8:00 am)30.04 "Hg (Jan 17, 8:00 am)
Low63 °F (Jan 10, 7:00 am)34% (Jan 10, 12:00 pm)29.80 "Hg (Jan 14, 2:00 pm)
Average76 °F64%29.93 "Hg
* Reported Jan 7 8:00 pm — Jan 22 8:00 pm, Port Sudan, Weather by CustomWeather, © 2017

Note: Actual official high and low records may vary slightly from our data, if they occured in-between our weather recording intervals... More about our weather records

Advertising

Port Sudan Weather History for the Previous 24 Hours

Scroll right to see more
 ConditionsComfort  
Time TempWeatherWind HumidityBarometerVisibility
8:00 pm
Sun, Jan 22
75 °FClear.12 mph61%29.98 "Hg10 mi
7:00 pm77 °FClear.14 mph61%29.95 "Hg10 mi
6:00 pm79 °FSunny.14 mph58%29.95 "Hg10 mi
5:00 pm81 °FSunny.14 mph54%29.92 "Hg10 mi
4:00 pm82 °FPassing clouds.13 mph51%29.92 "HgN/A
3:00 pm81 °FPassing clouds.15 mph58%29.92 "HgN/A
2:00 pm82 °FScattered clouds.12 mph51%29.92 "HgN/A
1:00 pm82 °FScattered clouds.12 mph51%29.95 "HgN/A
12:00 pm82 °FPassing clouds.5 mph48%29.98 "HgN/A
11:00 am81 °FPassing clouds.8 mph54%30.01 "HgN/A
10:00 am79 °FPassing clouds.9 mph61%30.01 "HgN/A
9:00 am75 °FPassing clouds.3 mph69%30.01 "HgN/A
8:00 am73 °FPassing clouds.3 mph74%30.01 "HgN/A
7:00 am73 °FClear.5 mph74%29.98 "Hg10 mi
6:00 am73 °FClear.5 mph74%29.98 "Hg10 mi
5:00 am73 °FClear.5 mph74%29.95 "Hg10 mi
4:00 am73 °FClear.5 mph74%29.95 "Hg10 mi
3:00 am75 °FClear.7 mph69%29.95 "Hg10 mi
2:00 am75 °FClear.7 mph69%29.95 "Hg10 mi
1:00 am75 °FClear.9 mph69%29.98 "Hg10 mi
12:00 am75 °FClear.5 mph69%29.98 "Hg10 mi
11:00 pm
Sat, Jan 21
75 °FClear.7 mph69%29.98 "Hg10 mi
10:00 pm75 °FClear.5 mph69%29.98 "Hg10 mi
9:00 pm77 °FClear.5 mph65%29.98 "Hg10 mi
Weather by CustomWeather, © 2017

See weather overviewHow to use our weather pages